Regional Weather Roundup
Issued by NWS Albany, NY

Home | Current Version | Previous Version | Graphics & Text | Print | Product List | Glossary Off
Versions: 1 2 3 4 5 6 7 8 9 10 11 12 13 14 15 16 17 18 19 20 21 22 23 24 25 26 27 28

000
ASUS41 KALY 210610
RWRALY

NEW YORK STATE HOURLY WEATHER ROUNDUP
NATIONAL WEATHER SERVICE ALBANY NY
200 AM EDT MON MAY 21 2018

NOTE: "FAIR" INDICATES FEW OR NO CLOUDS BELOW 12,000 FEET WITH NO
SIGNIFICANT WEATHER AND/OR NO OBSTRUCTIONS TO VISIBILITY.

NYZ032-033-038>043-046>054-057>066-NYZ062>081-082-084-210700-
EAST


CITY           SKY/WX    TMP DP  RH WIND       PRES   REMARKS
ALBANY         FAIR      53  48  83 NW8       30.12R
GLENS FALLS    FAIR      51  46  83 VRB3      30.11S
POUGHKEEPSIE   FAIR      53  51  93 CALM      30.08S
NEWBURGH       CLEAR     55  54  94 CALM      30.10S
MONTGOMERY     FAIR      58  52  80 W7        30.09R
WHITE PLAINS   FAIR      56  53  90 CALM      30.08R
ISLIP          FAIR      59  55  87 NW6       30.07R
NEW YORK CITY  FAIR      65  53  65 NW9       30.08R
CENTRAL PARK   FAIR      64  53  67 CALM      30.11R
$$

NYZ005>009-017-018-044>046-055-056-210700-
CENTRAL


CITY           SKY/WX    TMP DP  RH WIND       PRES   REMARKS
FULTON         FAIR      48  44  86 W5        30.15R
SYRACUSE       FAIR      48  48 100 CALM      30.14S
ROME           FAIR      47  46  97 CALM      30.16S
ELMIRA         FOG       53  53 100 SW5       30.15S VSB 1/4
BINGHAMTON     FAIR      52  51  97 N8        30.14S
$$

NYZ026>034-041>043-087-210700-
NORTH


CITY           SKY/WX    TMP DP  RH WIND       PRES   REMARKS
WATERTOWN      FAIR      43  43 100 NW3       30.14S FOG
FORT DRUM      NOT AVBL
OGDENSBURG     FAIR      43  42  97 CALM      30.12S
MASSENA        FAIR      43  42  97 CALM      30.12S
SARANAC LAKE   FAIR      33  33 100 CALM      30.12S
PLATTSBURGH    FAIR      54  40  59 W5        30.09R
$$

NYZ001>004-010>016-019>021-085-210700-
WEST


CITY           SKY/WX    TMP DP  RH WIND       PRES   REMARKS
NIAGARA FALLS  FAIR      50  46  86 CALM      30.18S FOG
BUFFALO        FAIR      54  47  77 CALM      30.18S
DUNKIRK        FAIR      52  51  97 SW3       30.18R
JAMESTOWN      FAIR      48  48 100 W6        30.20R FOG
WELLSVILLE     FOG       52  52 100 CALM      30.18F VSB 1/2
ROCHESTER      FAIR      53  51  93 W3        30.17S
PENN YAN       FAIR      52  49  89 SW3       30.17R
$$

             KEY
       WCI = WIND CHILL INDEX
       VSB = VISIBILITY
       HX  = HEAT INDEX
$$




USA.gov is the U.S. government's official web portal to all federal, state and local government web resources and services.